| time (UTC) | temp F | wind direction | speed MPH | gust MPH | rain 1hr in | rain 24hr in | rain mn in | humidity % | barometer mb |
| 20260504231552 | 58 | 236 | 7.0 | 17.0 | 0.00 | 0.00 | 0.00 | 36 | 1007.2 |
| 20260504230114 | 58 | 258 | 6.0 | 16.0 | 0.00 | 0.00 | 0.00 | 35 | 1006.8 |
| 20260504224606 | 60 | 291 | 11.0 | 19.0 | 0.00 | 0.00 | 0.00 | 35 | 1006.6 |
| 20260504223051 | 60 | 288 | 12.0 | 28.0 | 0.00 | 0.00 | 0.00 | 34 | 1006.6 |
| 20260504221550 | 62 | 269 | 10.0 | 22.0 | 0.00 | 0.00 | 0.00 | 31 | 1006.4 |
| 20260504220057 | 62 | 278 | 10.0 | 17.0 | 0.00 | 0.00 | 0.00 | 31 | 1006.6 |
| 20260504214550 | 61 | 227 | 9.0 | 20.0 | 0.00 | 0.00 | 0.00 | 29 | 1006.9 |
| 20260504213051 | 61 | 243 | 9.0 | 16.0 | 0.00 | 0.00 | 0.00 | 31 | 1007.0 |
| 20260504211557 | 60 | 283 | 5.0 | 12.0 | 0.00 | 0.00 | 0.00 | 34 | 1007.2 |
| 20260504210100 | 59 | 271 | 11.0 | 31.0 | 0.00 | 0.00 | 0.00 | 27 | 1007.5 |
| 20260504204550 | 61 | 338 | 7.0 | 18.0 | 0.00 | 0.00 | 0.00 | 33 | 1007.3 |
| 20260504203056 | 57 | 290 | 5.0 | 27.0 | 0.00 | 0.00 | 0.00 | 37 | 1007.7 |
| 20260504201559 | 60 | 290 | 7.0 | 13.0 | 0.00 | 0.00 | 0.00 | 37 | 1007.9 |
| 20260504194551 | 62 | 88 | 6.0 | 13.0 | 0.00 | 0.00 | 0.00 | 33 | 1007.8 |
| 20260504193050 | 61 | 264 | 7.0 | 18.0 | 0.00 | 0.00 | 0.00 | 34 | 1008.0 |
| 20260504191605 | 60 | 243 | 2.0 | 16.0 | 0.00 | 0.00 | 0.00 | 36 | 1008.1 |
| 20260504190049 | 60 | 269 | 7.0 | 13.0 | 0.00 | 0.00 | 0.00 | 35 | 1008.3 |
| 20260504184549 | 58 | 279 | 8.0 | 16.0 | 0.00 | 0.00 | 0.00 | 38 | 1008.6 |
| 20260504183050 | 59 | 283 | 10.0 | 15.0 | 0.00 | 0.00 | 0.00 | 37 | 1008.8 |
| 20260504181546 | 59 | 285 | 5.0 | 10.0 | 0.00 | 0.00 | 0.00 | 38 | 1008.8 |
| 20260504180051 | 59 | 237 | 1.0 | 10.0 | 0.00 | 0.00 | 0.00 | 37 | 1008.7 |
| 20260504174554 | 58 | 203 | 4.0 | 10.0 | 0.00 | 0.00 | 0.00 | 37 | 1009.0 |
| 20260504173052 | 57 | 315 | 4.0 | 7.0 | 0.00 | 0.00 | 0.00 | 36 | 1009.1 |
| 20260504171549 | 57 | 248 | 4.0 | 5.0 | 0.00 | 0.00 | 0.00 | 38 | 1009.2 |
| 20260504120119 | 28 | 114 | 0.0 | 1.0 | 0.00 | 0.00 | 0.00 | 88 | 1010.4 |
| 20260504081548 | 32 | 297 | 0.0 | 1.0 | 0.00 | 0.00 | 0.00 | 79 | 1010.7 |
| 20260504044554 | 41 | 0 | 0.0 | 1.0 | 0.00 | 0.00 | 0.00 | 62 | 1011.3 |
| 20260504043115 | 42 | 285 | 1.0 | 2.0 | 0.00 | 0.00 | 0.00 | 61 | 1011.5 |
| 20260504041551 | 43 | 0 | 0.0 | 2.0 | 0.00 | 0.00 | 0.00 | 58 | 1011.3 |
| 20260504040054 | 45 | 133 | 3.0 | 7.0 | 0.00 | 0.00 | 0.00 | 57 | 1011.3 |
| 20260504034551 | 43 | 0 | 0.0 | 1.0 | 0.00 | 0.00 | 0.00 | 57 | 1011.2 |
| 20260504033107 | 44 | 0 | 0.0 | 1.0 | 0.00 | 0.00 | 0.00 | 56 | 1011.0 |
| 20260504031556 | 45 | 0 | 0.0 | 3.0 | 0.00 | 0.00 | 0.00 | 53 | 1010.8 |
| 20260504024550 | 48 | 0 | 0.0 | 1.0 | 0.00 | 0.00 | 0.00 | 46 | 1010.7 |
| 20260504023057 | 51 | 0 | 0.0 | 0.0 | 0.00 | 0.00 | 0.00 | 40 | 1010.6 |
| 20260504021550 | 55 | 290 | 0.0 | 0.0 | 0.00 | 0.00 | 0.00 | 36 | 1010.5 |
| 20260504020058 | 60 | 0 | 0.0 | 4.0 | 0.00 | 0.00 | 0.00 | 31 | 1010.5 |
| 20260504014554 | 61 | 291 | 0.0 | 9.0 | 0.00 | 0.00 | 0.00 | 28 | 1010.5 |
| 20260504013051 | 62 | 263 | 3.0 | 6.0 | 0.00 | 0.00 | 0.00 | 25 | 1010.6 |
| 20260504011549 | 63 | 25 | 3.0 | 9.0 | 0.00 | 0.00 | 0.00 | 24 | 1010.6 |
| 20260504010059 | 63 | 228 | 1.0 | 9.0 | 0.00 | 0.00 | 0.00 | 24 | 1010.8 |
| 20260504004548 | 63 | 296 | 4.0 | 9.0 | 0.00 | 0.00 | 0.00 | 24 | 1010.8 |
| 20260504003047 | 63 | 283 | 7.0 | 12.0 | 0.00 | 0.00 | 0.00 | 25 | 1010.8 |
| 20260504001556 | 63 | 285 | 6.0 | 16.0 | 0.00 | 0.00 | 0.00 | 25 | 1010.9 |
| 20260504000058 | 64 | 278 | 4.0 | 11.0 | 0.00 | 0.00 | 0.00 | 24 | 1011.1 |
| 20260503234553 | 64 | 230 | 7.0 | 13.0 | 0.00 | 0.00 | 0.00 | 24 | 1011.2 |
| 20260503233052 | 63 | 272 | 6.0 | 16.0 | 0.00 | 0.00 | 0.00 | 24 | 1011.4 |